Starlink 6369

operational
NORAD ID: 57374 Int'l Des: 2023-099 Owner: SPXS Country: US Constellation: starlink
LEOCIRCULAR

Über Starlink 6369

Beschreibung wird geladen...

Live-Position

3D-Globus wird geladen...

Nächste Überflüge

Höhenverlauf

Altitude vs Time

uPlot chart will show altitude changes over time

Zweizeiliger Elementsatz

1 57374U 23099AY 25259.23644506 -.00000019 00000-0 13696-4 0 9992
2 57374 43.0035 90.9104 0001219 267.1373 92.9330 15.02535891120174
Epoch: 16. Sept. 2025 • Age: 11 hours

Aktueller Status

Höhe 561.0 km
Geschwindigkeit 7.58 km/s
Subsatellitenpunkt -12.26°S, 172.33°W
Startdatum 16. Juli 2023
Alter 2.1 years
Typ internet

Technische Details

Klassifizierung Payload
Masse 305.00 kg
Trockenmasse 290.00 kg
Gesamtmasse 305.00 kg
Länge 0.20 m
Durchmesser 2.80 m
Spannweite 9.00 m
Form Box + pan
Hersteller SPXS
Bus-Typ Starlink
Phasenstatus In Orbit
Besitzer/Staat SPXS/US

Große Konstellationen

Loading constellations...